User: anonymous   Login
Location: Holcomb Observatory
(44.4922°N, 73.1654°W)
Time: 13:09:10
(UTC-05:00)
Language:

Cosmos 1727 Rocket - Orbit

View from above orbital plane
View from above orbital plane
View from above satellite
View from above satellite

Ground track
Ground track

The orbit data is extracted from the following two-line orbital elements,

1 16511U 86008B   15031.86040609  .00000085  00000-0  71543-4 0  6667
2 16511 082.9476 143.1170 0024736 182.6778 327.2809 13.75778366457011
Epoch (UTC): 31 January 2015 20:38:59
Eccentricity: 0.0024736
inclination: 82.9476°
perigee height: 961 km
apogee height: 997 km
right ascension of ascending node: 143.1170°
argument of perigee: 182.6778°
revolutions per day: 13.75778366
mean anomaly at epoch: 327.2809°
orbit number at epoch: 45701

The dashed part of the orbit path shows where the satellite is in the earth's shadow,  

DLR